This is the latest recevied weather packets stored in our database for station/object DK6GC-10. If no packets are shown the sender has not sent any weather packets the latest 10 day(s).
| Time | Temp. | Humidity | Pressure | Rain* | Wind** | Luminosity | Snow |
|---|---|---|---|---|---|---|---|
| 1788054319 | 20.56° C | 69% | 1016.7 hPa | - | - | - | - |
| 1788053419 | 20° C | 70% | 1016.7 hPa | - | - | - | - |
| 1788052519 | 20° C | 69% | 1016.8 hPa | - | - | - | - |
| 1788051619 | 20.56° C | 68% | 1016.8 hPa | - | - | - | - |
| 1788050718 | 20° C | 69% | 1016.7 hPa | - | - | - | - |
| 1788049818 | 20.56° C | 66% | 1016.9 hPa | - | - | - | - |
| 1788048917 | 20.56° C | 63% | 1016.7 hPa | - | - | - | - |
| 1788048022 | 20.56° C | 63% | 1016.7 hPa | - | - | - | - |
| 1788047122 | 20.56° C | 66% | 1016.8 hPa | - | - | - | - |
| 1788046222 | 20.56° C | 66% | 1016.7 hPa | - | - | - | - |
| 1788045321 | 21.11° C | 64% | 1016.4 hPa | - | - | - | - |
| 1788044421 | 21.67° C | 58% | 1016.2 hPa | - | - | - | - |
| 1788043521 | 21.67° C | 57% | 1016.2 hPa | - | - | - | - |
| 1788042621 | 21.67° C | 56% | 1016.2 hPa | - | - | - | - |
| 1788041721 | 22.22° C | 56% | 1016.2 hPa | - | - | - | - |
| 1788040820 | 22.22° C | 54% | 1016.2 hPa | - | - | - | - |
| 1788039920 | 21.67° C | 55% | 1016.1 hPa | - | - | - | - |
| 1788039020 | 21.67° C | 55% | 1016.1 hPa | - | - | - | - |
| 1788038120 | 21.67° C | 57% | 1016.1 hPa | - | - | - | - |
| 1788037220 | 21.67° C | 58% | 1016.2 hPa | - | - | - | - |
| 1788036320 | 22.22° C | 54% | 1016.1 hPa | - | - | - | - |
| 1788035419 | 22.22° C | 51% | 1015.7 hPa | - | - | - | - |
| 1788034519 | 22.22° C | 51% | 1015.8 hPa | - | - | - | - |
| 1788033619 | 22.22° C | 51% | 1015.9 hPa | - | - | - | - |
| 1788032719 | 22.22° C | 51% | 1015.8 hPa | - | - | - | - |
* Rain since midnight (hover to see other rain measurements)
** Current wind speed in m/s (hover to see current wind gust speed)